[[{"header":{"parameterUnit":"m.s-1","parameterCategory":1,"la1":30.2992,"la2":30.254,"lo1":-89.0895,"lo2":-89.0443,"dy":0.0025,"dx":0.0025,"nx":19,"ny":19,"refTime":"2026-03-26T21:00:00:Z","depth":0,"parameterNumber":2,"parameterNumberName":"U-component_of_WINDS"},"data":[0,0,0,-1.9986,-1.9988,-2.0086,-2.0086,-2.0213,-2.0214,0,0,0,0,0,0,0,0,0,0,0,-1.9958,-1.9959,-1.9986,-1.9988,-2.0086,-2.0086,-2.0213,-2.0214,0,0,0,0,0,0,0,0,0,0,0,-1.9957,-1.9958,-1.9959,-1.9989,-2.0086,-2.0086,-2.0213,-2.0138,0,0,0,0,0,0,0,0,0,0,-2.0043,-2.0018,-1.9958,-1.9959,-1.9989,-2.0086,-2.0086,-2.0135,-2.0143,-2.017,0,-2.0193,0,-2.0206,-2.0223,-2.0223,0,0,0,-1.9988,-2.0011,-2.0036,-1.996,-1.999,-2.0086,-2.0042,-2.0139,-2.0149,-2.018,-2.0195,-2.0199,-2.0208,-2.0224,-2.0224,-2.0378,-2.0379,0,0,-1.9982,-1.9976,-2.003,-2.0042,-2.0027,-2.0039,-2.0045,-2.0145,-2.016,-2.0195,-2.0202,-2.021,-2.0225,-2.0226,-2.0377,-2.0378,0,0,0,-1.9967,-1.9972,-1.9995,-2.0037,-2.0055,-2.0041,-2.0049,-2.0156,-2.0164,-2.0204,-2.0211,-2.0225,-2.0227,-2.0376,-2.0377,-2.0407,0,0,0,-1.9964,-1.9963,-1.9993,-1.999,-2.0053,-2.0106,-2.0057,-2.0157,-2.0168,-2.0211,-2.0225,-2.0228,-2.0376,-2.0377,-2.0404,-2.0422,0,0,0,-1.9951,-1.9962,-1.9976,-1.9989,-2.0031,-2.0105,-2.0119,-2.016,-2.0173,-2.0223,-2.0228,-2.0375,-2.0377,-2.0402,-2.0418,-2.046,0,0,0,-1.9935,-2.0001,-1.9976,-2.0052,-2.003,-2.0122,-2.0118,-2.0188,-2.0234,-2.0226,-2.0376,-2.0377,-2.0401,-2.0416,-2.0457,-2.0493,-2.0507,0,0,-2.0014,-2.001,-2.0055,-2.0036,-2.0131,-2.0108,-2.0208,-2.0257,-2.0268,-2.0341,-2.0345,-2.0405,-2.0418,-2.0459,-2.0592,-2.0603,0,0,0,-2.0078,-2.011,-2.0137,-2.0181,-2.022,-2.0255,-2.029,-2.0308,-2.037,-2.0304,-2.0432,-2.044,-2.0464,-2.0482,-2.0491,-2.0513,-2.0385,-2.0385,-2.0385,-2.0179,-2.019,-2.0266,-2.0288,-2.0331,-2.0367,-2.0402,-2.0433,-2.0432,-2.0462,-2.0483,-2.0562,-2.0582,-2.059,-2.0612,-2.0504,-2.0504,-2.0504,-2.0504,-2.0295,-2.0342,-2.0339,-2.0411,-2.0422,-2.0483,-2.052,-2.0517,-2.0576,-2.0547,-2.0569,-2.0536,-2.0602,-2.0622,-2.0506,-2.0506,-2.0506,-2.0505,-2.0505,-2.0362,-2.0386,-2.0408,-2.0472,-2.0521,-2.0542,-2.0599,-2.0607,-2.0616,-2.0638,-2.0661,-2.066,-2.066,-2.0648,-2.0649,-2.0649,-2.0649,-2.0649,-2.0649,-2.0422,-2.0445,-2.0491,-2.0539,-2.0568,-2.0608,-2.0645,-2.0674,-2.0709,-2.0711,-2.0711,-2.0706,-2.0607,-2.0581,-2.0654,-2.0653,-2.0652,-2.0652,-2.0652,-2.0534,-2.051,-2.0581,-2.0611,-2.0667,-2.0715,-2.0726,-2.0785,-2.0811,-2.0838,-2.0829,-2.0754,-2.0751,-2.0743,-2.0722,-2.0827,-2.0827,-2.0827,-2.0827,-2.059,-2.0589,-2.0664,-2.071,-2.0757,-2.0774,-2.0854,-2.0884,-2.0911,-2.0927,-2.0914,-2.0886,-2.0878,-2.088,-2.0869,-2.0849,-2.0984,-2.0984,-2.0985,-2.0659,-2.0663,-2.0729,-2.0755,-2.08,-2.0839,-2.0915,-2.0969,-2.0994,-2.0991,-2.094,-2.0934,-2.089,-2.0875,-2.087,-2.0853,-2.0817,0,0]},{"header":{"parameterUnit":"m.s-1","parameterCategory":1,"la1":30.2992,"la2":30.254,"lo1":-89.0895,"lo2":-89.0443,"dy":0.0025,"dx":0.0025,"nx":19,"ny":19,"refTime":"2026-03-26T21:00:00:Z","depth":0,"parameterNumber":3,"parameterNumberName":"V-component_of_WINDS"},"data":[0,0,0,1.6272,1.6271,1.6207,1.6207,1.6125,1.6125,0,0,0,0,0,0,0,0,0,0,0,1.6293,1.6293,1.6273,1.6271,1.6207,1.6207,1.6125,1.6125,0,0,0,0,0,0,0,0,0,0,0,1.6294,1.6293,1.6292,1.6271,1.6207,1.6207,1.6126,1.6173,0,0,0,0,0,0,0,0,0,0,1.6235,1.6256,1.6293,1.6292,1.6271,1.6207,1.6207,1.6175,1.617,1.6155,0,1.6144,0,1.6133,1.6119,1.6119,0,0,0,1.6269,1.6261,1.6243,1.6292,1.627,1.6207,1.6235,1.6172,1.6167,1.6148,1.6142,1.6139,1.6132,1.6119,1.6118,1.6044,1.6044,0,0,1.6272,1.6282,1.6247,1.6239,1.6251,1.6237,1.6233,1.6169,1.6162,1.6142,1.6137,1.613,1.6118,1.6118,1.6045,1.6044,0,0,0,1.6284,1.6284,1.6268,1.6242,1.6231,1.6236,1.6231,1.6165,1.6159,1.6136,1.6129,1.6118,1.6117,1.6045,1.6045,1.6044,0,0,0,1.6286,1.6291,1.6269,1.6274,1.6232,1.6198,1.6229,1.6164,1.6156,1.613,1.6118,1.6116,1.6045,1.6045,1.6044,1.6041,0,0,0,1.6297,1.6293,1.6284,1.6275,1.6248,1.6198,1.6189,1.6162,1.6152,1.6119,1.6116,1.6045,1.6045,1.6045,1.6041,1.6025,0,0,0,1.631,1.6282,1.6285,1.625,1.6249,1.62,1.6189,1.6151,1.6122,1.6117,1.6045,1.6045,1.6045,1.6042,1.6026,1.6013,1.6009,0,0,1.628,1.6278,1.6258,1.6258,1.6211,1.6208,1.616,1.6123,1.6109,1.6067,1.6065,1.6044,1.6041,1.6025,1.5983,1.5979,0,0,0,1.6251,1.6236,1.6222,1.6197,1.6171,1.6148,1.6119,1.6105,1.6069,1.609,1.6033,1.6032,1.6022,1.6015,1.6012,1.6003,1.6042,1.6042,1.6042,1.622,1.6208,1.6173,1.6154,1.613,1.6102,1.6081,1.6058,1.6049,1.6037,1.6023,1.5999,1.5992,1.599,1.5981,1.6016,1.6016,1.6016,1.6016,1.6174,1.6151,1.6146,1.611,1.6097,1.6065,1.6038,1.6034,1.6002,1.6008,1.5998,1.6005,1.5987,1.5978,1.6016,1.6016,1.6016,1.6016,1.6016,1.6152,1.6139,1.6126,1.6092,1.6066,1.6047,1.6019,1.6007,1.5995,1.5986,1.5971,1.5971,1.597,1.598,1.598,1.598,1.598,1.598,1.598,1.6133,1.6119,1.6098,1.6071,1.6055,1.6033,1.6007,1.599,1.5968,1.5962,1.5962,1.5955,1.5988,1.5997,1.5978,1.5979,1.5979,1.5979,1.5979,1.609,1.6099,1.6066,1.6051,1.6019,1.5996,1.5983,1.5951,1.5935,1.5922,1.5918,1.5945,1.5942,1.5944,1.5951,1.5921,1.5921,1.5921,1.5921,1.6071,1.607,1.6035,1.6012,1.5988,1.5974,1.5937,1.5917,1.5897,1.5887,1.589,1.5898,1.5901,1.5896,1.5899,1.5905,1.5865,1.5865,1.5865,1.6044,1.6041,1.6011,1.5996,1.5971,1.595,1.5915,1.5887,1.5866,1.5862,1.5879,1.5881,1.5894,1.59,1.5894,1.5899,1.591,0,0]}]]